Timeline UpdatesTrip UpdatesNews PostsPvt PostsTravel TipsAdmin PostsConv PostsFollowed PostsChat RequestsBlog PostsPNR Posts

Disclaimer
Search
 
 
Thu Apr 24, 2014 09:30:16 ISTHomeTrainsΣChainsAtlasPNRForumGalleryNewsFAQTripsMembersLoginFeedback
No Recent News for this Train
Other Trains in the News **new
Latest...
Additional Stop provided at Kayankulam Jn
Wed Feb 12, 2014 (08:02PM)
⇐ Return Journey: Train# 16335

16336/Nagercoil - Gandhidham Express

Apr 07 (7:55PM)
Change Departure Station:
Change Arrival Station:
Post a Train Travel TipPost a Train Travel Tip **new
Post a Comment/Question/Picture/VideoPost a Comment/Question/Picture/Video
Pantry/Catering
✓ Pantry Car Avbl
✓ Catering Avbl
RSA - Rake Sharing
06309/06310/16335/16336 has RSA.
Rake/Coach Composition
LOCO-SLR-LD-GEN-S1-S2-S3-S4-S5-S6-PC-S7-S8-SS9-S10-S11-S12-A1-B2-B1-GEN-GEN-SLR; Coach position at Ahmedabad.
Loco
NCJ to SRR RPM/ED WAP4 SRR to GIMB ERS WDM3A
News    PNR    Forum    Time-Table    Availability    Fare Chart    Map    Arr/Dep History    Trips    Gallery    ΣChains    X/O    Timeline    
Travel Time: 31h 35m    37 halts    Distance: 1529 km    Avg Speed: 48 km/hr
Type: Mail/Express
Zone: SR/Southern
Departs @ 15:35 (Avg 1m late)
Platform# ???
  T    
Trivandrum Central/TVC 
Arrives @ 23:10 +1 night (Avg 18m late)
Platform# 6
   W   
Vasai Road/BSR 

37 halts. 207 intermediate Stations between Trivandrum Central and Vasai Road

Show ALL intermediate Stations  Show Old Time-Table

#CodeStation NameX/OArrivesAvgDepartsAvgHaltPFDay#KmSpeedElevZoneAddress
1NCJNagercoil Junction (3)  -14:00+011-71.15022mSRNagercoil-629002, Tamil Nadu
2TVC»Trivandrum Central (5)»X  15:25-315:35+110m--10.07012mSRPh: 0471-2321622, Kerala
3QLNKollam Junction (6)  16:30+916:35+85m2164.67016mSRKollam 0474-2746194, Kerala
4KYJKayamkulam Junction (5)X  17:10+617:12+62m--1105.46711mSRAlappuzha Ph;0479-2442042, Kerala
5CNGRChengannur (3)X  17:30+1517:32+192m--1125.6686mSRPh: 0479-2452340, Kerala
6TRVLTiruvalla (2)  17:40+2317:42+242m21134.73627mSRPh: 0469-2601314, Kerala
7KTYMKottayam (3)X  18:25+1718:30+255m11160.43815mSRTel: 0481 2563535, Kerala
8ERNErnakulam Town (North) (2)  20:05+920:10+105m11220.4509mSRTel: 0484 2395198, Kerala
9AWYAluva (3)  20:30+920:32+102m--1237.26612mSRPh: 0484-2624141, Kerala
10TCRThrissur (4)X  21:22+1521:25+153m21291.8366mSRThrissur Tel: 0487 2423150, Kerala
11SRRShoranur Junction (7)  22:20+622:30+2210m--1324.85326mSRShoranur ph.no 0466-2222913, Kerala
12PTBPattambi (2)  22:43+2422:45+242m--1336.36221mSRPattambi, Kerala
13KTUKuttippuram (2)X  23:03+2423:05+242m--1354.85017mSRKuttippuram, Kerala
14TIRTirur (3)  23:23+3023:25+302m--1369.8749mSRTel: 0494 2422240, Kerala
15PGIParappangadi (2)X  23:38+3323:40+332m--1385.97019mSRParappanangadi, Kerala
16FKFerok (2)  23:53+3323:55+332m--1401.12019mSRFeroke, Kerala
17CLTKozhikode Main (4)  00:25+2100:30+225m42411.18111mSRCalicut Tel: 0495 2701234, Kerala
18QLDKoyilandy (3)  00:48+2700:50+262m--2435.47311mSRQuilandi, Kerala
19BDJVadakara (2)X  01:08+2601:10+262m22457.37411mSRCalicut / Station Ph No : 0496-2524254, Kerala
20TLYThalassery (2)  01:28+2901:30+292m--2479.4419mSRKannur, Kerala
21CANKannur Main (3)  02:00+2102:05+265m12500.16714mSRKannur Tel: 0497 2705555, Kerala
22KPQKannapuram (2)  02:18+2902:20+282m--2514.6649mSRKannur District, Kerala
23PAYPayyanur (3)  02:38+2802:40+282m--2533.8540mSRKannur District, Kerala
24KGQKasaragod (3)X  03:38+2103:40+222m--2586.24218mSRTel: 04994 220800, Kerala
25MAJNMangalore Junction (3)X  04:50+805:00+1410m32635.23224mSRMangalore 575001, Karnataka
26SLSurathkal (1)  05:38+1105:40+162m12655.86322mKRSurathkal, Karnataka
27UDUdupi (2)X  06:20+1306:22+192m--2697.67418mKRUdupi, Karnataka
28KUDAKundapura (2)X  06:48+2306:50+322m12729.67713mKRBasrur, Karnataka
29BYNRByndoor Mookambika Road (1)  07:16+3607:18+362m12763.26010mKRUdupi Dist. 576214, Karnataka
30MRDWMurdeshwar (2)  07:48+3807:50+422m--2793.16028mKRMurudeshwara, Karnataka
31KTKumta (2)XO  08:30+3608:32+382m--2833.15920mKRKumta - 581362, Karnataka
32KAWRKarwar (2)  09:28+3009:30+302m--2888.25814mKRKarwar, Karnataka
33CNOCanacona (1)  09:58+2610:00+252m12915.33729mKRPh:-0832-2643644., Goa
34MAOMadgaon Junction (3)  10:55+1511:05+3710m22949.56111mKRMadgaon 403601, Goa
35SWVSawantwadi Road (2)X  12:18+5812:20+592m121023.94240mKRDist. Sindhudurg, Maharashtra
36RNRatnagiri (3)  16:10+1716:15+195m221184.470129mKRRatnagiri 415612, Maharashtra
37CHIChiplun (2)  17:20+3717:22+412m121259.85112mKRChiplun, Maharashtra
38PNVLPanvel Junction (7)  21:20+2621:25+315m721463.54110mCRPanvel, Maharashtra
39BIRDBhiwandi Road (4)  22:18+2722:20+272m421501.23326mCRBhiwandi, Maharashtra
40BSR•Vasai Road (7)•  23:10+1823:15+225m621528.5607mWRThane-401202, Maharashtra
41BORBoisar (3)00:06+2700:08+272m--31579.48417mWRBoisar Tel.no-02525-266626, Maharashtra
42VAPIVapi (3)X  00:58+2401:00+242m--31649.65627mWRVapi, Gujarat
43BLValsad (3)X  01:28+2201:30+272m131675.84115mWRValsad, Gujarat
44STSurat (4)O  03:10+603:22+712m231744.57519mWRSurat 395001, Gujarat
45AKVAnkleshwar Junction (4)X  04:02+1604:04+162m131794.57019mWRAnkleshwar, Gujarat
46BRCVadodara Junction (7)X  05:12+1805:22+1610m231874.36736mWRVadodara, Gujarat
47ANNDAnand Junction (6)X  05:54+1705:56+172m231910.17444mWRAnand, Gujarat
48NDNadiad Junction (4)XO  06:11+2006:13+202m231928.65937mWRNadiad, Gujarat
49MANManinagar (2)  06:56+2206:58+222m131971.01150mWRAhmadabad, Gujarat
50ADIAhmedabad Junction (12)  07:15+2207:35+2120m331974.16351mWRAhmedabad, Gujarat
51VGViramgam Junction (5)  08:37+2508:39+252m132039.65529mWRViramgam, Gujarat
52DHGDhrangadhra Junction (3)  09:50+2009:52+202m--32104.27454mWRDhrangadhra, Gujarat
53MALBMaliya Miyana Junction (2)  10:54+1810:56+182m--32181.1496mWRMalia, Gujarat
54SIOBSamakhiali Junction (3)  11:44+1311:46+122m132220.36042mWRSamakhiali, Gujarat
55BCOBBhachau (3)  12:02+1212:04+122m132236.33044mWRBhachau, Gujarat
56GIMBGandhidham Junction (3)  13:20+5-332274.1-12mWRGandhidham, Gujarat
Scroll to Top
Scroll to Bottom